QPF
0.00 0.00 0.00 0.00 0.00 0.00 0.00 0.00 0.00 0.00 0.00 0.00 0.00 0.00 0.00 0.00 0.00 0.02 0.01 0.01 0.01 0.06 0.13 0.17 0.12 0.14 0.16 0.13 0.09 0.04 0.05 0.02 0.01 0.01 0.01 0.00 0.00 0.00 0.00 0.00 0.02 0.02 0.01 0.00 0.02 0.00 0.00 0.00 0.00
0.00 0.00 0.00 0.00 0.00 0.00 0.00 0.00 0.00 0.00 0.00 0.00 0.00 0.00 0.00 0.00 0.00 0.01 0.01 0.02 0.02 0.02 0.05 0.06 0.08 0.09 0.06 0.05 0.03 0.04 0.05 0.08 0.12 0.15 0.12 0.07 0.03 0.02 0.01 0.00 0.00 0.01 0.02 0.03 0.02 0.01 0.00 0.00 0.00
0.00 0.00 0.00 0.00 0.00 0.00 0.00 0.00 0.00 0.00 0.00 0.00 0.00 0.00 0.00 0.00 0.00 0.00 0.00 0.00 0.01 0.01 0.01 0.01 0.03 0.03 0.05 0.05 0.03 0.03 0.03 0.03 0.04 0.08 0.14 0.16 0.15 0.14 0.06 0.01 0.01 0.02 0.01 0.01 0.03 0.02 0.02 0.01 0.00
0.00 0.00 0.00 0.00 0.00 0.00 0.00 0.00 0.00 0.00 0.00 0.00 0.00 0.00 0.00 0.00 0.00 0.00 0.00 0.00 0.00 0.01 0.01 0.00 0.00 0.00 0.00 0.00 0.01 0.00 0.01 0.00 0.00 0.01 0.03 0.10 0.17 0.19 0.15 0.06 0.05 0.04 0.04 0.02 0.01 0.02 0.04 0.05 0.04
0.00 0.00 0.00 0.00 0.00 0.00 0.00 0.00 0.00 0.00 0.00 0.00 0.00 0.00 0.00 0.00 0.00 0.00 0.00 0.00 0.00 0.00 0.00 0.00 0.00 0.00 0.00 0.00 0.00 0.00 0.00 0.00 0.00 0.00 0.00 0.04 0.07 0.08 0.07 0.05 0.04 0.09 0.08 0.04 0.02 0.02 0.02 0.03 0.06
0.00 0.00 0.00 0.00 0.00 0.00 0.00 0.00 0.00 0.00 0.00 0.00 0.00 0.00 0.00 0.00 0.00 0.00 0.00 0.00 0.00 0.00 0.00 0.00 0.00 0.00 0.00 0.00 0.00 0.00 0.00 0.00 0.00 0.00 0.00 0.00 0.02 0.02 0.03 0.03 0.03 0.01 0.03 0.04 0.04 0.05 0.06 0.05 0.04
0.00 0.00 0.00 0.00 0.00 0.00 0.00 0.00 0.00 0.00 0.00 0.00 0.00 0.00 0.00 0.00 0.00 0.00 0.00 0.00 0.00 0.00 0.00 0.00 0.00 0.00 0.00 0.00 0.00 0.00 0.00 0.00 0.00 0.00 0.00 0.00 0.00 0.00 0.00 0.00 0.00 0.00 0.00 0.00 0.03 0.05 0.08 0.07 0.04
0.00 0.00 0.00 0.00 0.00 0.00 0.00 0.00 0.00 0.00 0.00 0.00 0.00 0.00 0.00 0.00 0.00 0.00 0.00 0.00 0.00 0.00 0.00 0.00 0.00 0.00 0.00 0.00 0.00 0.00 0.00 0.00 0.00 0.00 0.00 0.00 0.00 0.00 0.00 0.00 0.00 0.00 0.00 0.00 0.00 0.00 0.00 0.01 0.02
0.00 0.00 0.00 0.00 0.00 0.00 0.00 0.00 0.00 0.00 0.00 0.00 0.00 0.00 0.00 0.00 0.00 0.00 0.00 0.00 0.00 0.00 0.00 0.00 0.00 0.00 0.00 0.00 0.00 0.00 0.00 0.00 0.00 0.00 0.00 0.00 0.00 0.00 0.00 0.00 0.00 0.00 0.00 0.00 0.00 0.00 0.00 0.00 0.00
0.00 0.00 0.00 0.00 0.00 0.00 0.00 0.00 0.00 0.00 0.00 0.00 0.00 0.00 0.00 0.00 0.00 0.00 0.00 0.00 0.00 0.00 0.00 0.00 0.00 0.00 0.00 0.00 0.00 0.00 0.00 0.00 0.00 0.00 0.00 0.00 0.00 0.00 0.00 0.00 0.00 0.00 0.00 0.00 0.00 0.00 0.00 0.00 0.00
0.00 0.00 0.00 0.00 0.00 0.00 0.00 0.00 0.00 0.00 0.00 0.00 0.00 0.00 0.00 0.00 0.00 0.00 0.00 0.00 0.00 0.00 0.00 0.00 0.00 0.00 0.00 0.00 0.00 0.00 0.00 0.00 0.00 0.00 0.00 0.00 0.00 0.00 0.00 0.00 0.00 0.00 0.00 0.00 0.00 0.00 0.00 0.00 0.00
0.00 0.00 0.00 0.00 0.00 0.00 0.00 0.00 0.00 0.00 0.00 0.00 0.00 0.00 0.00 0.00 0.00 0.00 0.00 0.00 0.00 0.00 0.00 0.00 0.00 0.00 0.00 0.00 0.00 0.00 0.00 0.00 0.00 0.00 0.00 0.00 0.00 0.00 0.00 0.00 0.00 0.00 0.00 0.00 0.00 0.00 0.00 0.00 0.00
0.00 0.00 0.00 0.00 0.00 0.00 0.00 0.00 0.00 0.00 0.00 0.00 0.00 0.00 0.00 0.00 0.00 0.00 0.00 0.00 0.00 0.00 0.00 0.00 0.00 0.00 0.00 0.00 0.00 0.00 0.00 0.00 0.00 0.00 0.00 0.00 0.00 0.00 0.00 0.00 0.00 0.00 0.00 0.00 0.00 0.00 0.00 0.00 0.00
0.00 0.00 0.00 0.00 0.00 0.00 0.00 0.00 0.00 0.00 0.00 0.00 0.00 0.00 0.00 0.00 0.00 0.00 0.00 0.00 0.00 0.00 0.00 0.00 0.00 0.00 0.00 0.00 0.00 0.00 0.00 0.00 0.00 0.00 0.00 0.00 0.00 0.00 0.00 0.00 0.00 0.00 0.00 0.00 0.00 0.00 0.00 0.00 0.00
0.00 0.00 0.00 0.00 0.00 0.00 0.00 0.00 0.00 0.00 0.00 0.00 0.00 0.00 0.00 0.00 0.00 0.00 0.00 0.00 0.00 0.00 0.00 0.00 0.00 0.00 0.00 0.00 0.00 0.00 0.00 0.00 0.00 0.00 0.00 0.00 0.00 0.00 0.00 0.00 0.00 0.00 0.00 0.00 0.00 0.00 0.00 0.00 0.00
0.00 0.00 0.00 0.00 0.00 0.00 0.00 0.00 0.00 0.00 0.00 0.00 0.00 0.00 0.00 0.00 0.00 0.00 0.00 0.00 0.00 0.00 0.00 0.00 0.00 0.00 0.00 0.00 0.00 0.00 0.00 0.00 0.00 0.00 0.00 0.00 0.00 0.00 0.00 0.00 0.00 0.00 0.00 0.00 0.00 0.00 0.00 0.00 0.00
0.00 0.00 0.00 0.00 0.00 0.00 0.00 0.00 0.00 0.00 0.00 0.00 0.00 0.00 0.00 0.00 0.00 0.00 0.00 0.00 0.00 0.00 0.00 0.00 0.00 0.00 0.00 0.00 0.00 0.00 0.00 0.00 0.00 0.00 0.00 0.00 0.00 0.00 0.00 0.00 0.00 0.00 0.00 0.00 0.00 0.00 0.00 0.00 0.00
0.00 0.00 0.00 0.00 0.00 0.00 0.00 0.00 0.00 0.00 0.00 0.00 0.00 0.00 0.00 0.00 0.00 0.00 0.00 0.00 0.00 0.00 0.00 0.00 0.00 0.00 0.00 0.00 0.00 0.00 0.00 0.00 0.00 0.00 0.00 0.00 0.00 0.00 0.00 0.00 0.00 0.00 0.00 0.00 0.00 0.00 0.00 0.00 0.00
0.00 0.00 0.00 0.00 0.00 0.00 0.00 0.00 0.00 0.00 0.00 0.00 0.00 0.00 0.00 0.00 0.00 0.00 0.00 0.00 0.00 0.00 0.00 0.00 0.00 0.00 0.00 0.00 0.00 0.00 0.00 0.00 0.00 0.00 0.00 0.00 0.00 0.00 0.00 0.00 0.00 0.00 0.00 0.00 0.00 0.00 0.00 0.00 0.00
0.00 0.00 0.00 0.00 0.00 0.00 0.00 0.00 0.00 0.00 0.00 0.00 0.00 0.00 0.00 0.00 0.00 0.00 0.00 0.00 0.00 0.00 0.00 0.00 0.00 0.00 0.00 0.00 0.00 0.00 0.00 0.00 0.00 0.00 0.00 0.00 0.00 0.00 0.00 0.00 0.00 0.00 0.00 0.00 0.00 0.00 0.00 0.00 0.00
0.00 0.00 0.00 0.00 0.00 0.00 0.00 0.00 0.00 0.00 0.00 0.00 0.00 0.00 0.00 0.00 0.00 0.00 0.00 0.00 0.00 0.00 0.00 0.00 0.00 0.00 0.00 0.00 0.00 0.00 0.00 0.00 0.00 0.00 0.00 0.00 0.00 0.00 0.00 0.00 0.00 0.00 0.00 0.00 0.00 0.00 0.00 0.00 0.00
0.00 0.00 0.00 0.00 0.00 0.00 0.00 0.00 0.00 0.00 0.00 0.00 0.00 0.00 0.00 0.00 0.00 0.00 0.00 0.00 0.00 0.00 0.00 0.00 0.00 0.00 0.00 0.00 0.00 0.00 0.00 0.00 0.00 0.00 0.00 0.00 0.00 0.00 0.00 0.00 0.00 0.00 0.00 0.00 0.00 0.00 0.00 0.00 0.00
0.00 0.00 0.00 0.00 0.00 0.00 0.00 0.00 0.00 0.00 0.00 0.00 0.00 0.00 0.00 0.00 0.00 0.00 0.00 0.00 0.00 0.00 0.00 0.00 0.00 0.00 0.00 0.00 0.00 0.00 0.00 0.00 0.00 0.00 0.00 0.00 0.00 0.00 0.00 0.00 0.00 0.00 0.00 0.00 0.00 0.00 0.00 0.00 0.00
0.00 0.00 0.00 0.00 0.00 0.00 0.00 0.00 0.00 0.00 0.00 0.00 0.00 0.00 0.00 0.00 0.00 0.00 0.00 0.00 0.00 0.00 0.00 0.00 0.00 0.00 0.00 0.00 0.00 0.00 0.01 0.00 0.00 0.00 0.00 0.00 0.00 0.00 0.00 0.00 0.00 0.00 0.00 0.00 0.00 0.00 0.00 0.00 0.00
0.00 0.00 0.00 0.00 0.00 0.00 0.00 0.00 0.00 0.00 0.00 0.00 0.00 0.00 0.00 0.00 0.00 0.00 0.00 0.00 0.00 0.00 0.00 0.00 0.00 0.00 0.00 0.00 0.01 0.01 0.02 0.02 0.01 0.00 0.00 0.00 0.00 0.00 0.00 0.00 0.00 0.00 0.00 0.00 0.00 0.00 0.00 0.00 0.00
0.00 0.00 0.00 0.00 0.00 0.00 0.00 0.00 0.00 0.00 0.00 0.00 0.00 0.00 0.00 0.00 0.00 0.00 0.00 0.00 0.00 0.00 0.00 0.00 0.00 0.01 0.01 0.01 0.01 0.02 0.02 0.02 0.01 0.01 0.01 0.01 0.01 0.00 0.00 0.00 0.00 0.00 0.00 0.00 0.00 0.00 0.00 0.00 0.00
0.00 0.00 0.00 0.00 0.00 0.00 0.00 0.00 0.00 0.00 0.00 0.00 0.00 0.00 0.00 0.00 0.00 0.00 0.00 0.00 0.00 0.00 0.00 0.00 0.02 0.03 0.02 0.02 0.04 0.04 0.03 0.03 0.03 0.03 0.04 0.04 0.03 0.01 0.01 0.00 0.00 0.00 0.00 0.00 0.00 0.00 0.00 0.00 0.00
0.00 0.00 0.00 0.00 0.00 0.00 0.00 0.00 0.00 0.00 0.00 0.00 0.00 0.00 0.00 0.00 0.00 0.00 0.00 0.00 0.00 0.00 0.00 0.00 0.01 0.02 0.02 0.03 0.05 0.07 0.05 0.05 0.05 0.06 0.05 0.05 0.05 0.04 0.03 0.01 0.01 0.00 0.00 0.00 0.00 0.00 0.00 0.00 0.00
0.00 0.00 0.00 0.00 0.00 0.00 0.00 0.00 0.00 0.00 0.00 0.00 0.00 0.00 0.00 0.00 0.00 0.00 0.00 0.00 0.00 0.00 0.00 0.01 0.01 0.01 0.02 0.03 0.05 0.07 0.07 0.07 0.07 0.08 0.06 0.06 0.05 0.05 0.06 0.04 0.02 0.01 0.01 0.00 0.00 0.00 0.00 0.00 0.00
0.00 0.00 0.00 0.00 0.00 0.00 0.00 0.00 0.00 0.00 0.00 0.00 0.00 0.00 0.00 0.00 0.00 0.00 0.00 0.00 0.00 0.00 0.00 0.01 0.01 0.02 0.01 0.02 0.04 0.04 0.05 0.07 0.07 0.07 0.06 0.05 0.05 0.05 0.06 0.04 0.02 0.01 0.01 0.01 0.01 0.01 0.00 0.00 0.00
MSLP
1010.26 1009.36 1009.18 1008.81 1008.00 1005.89 1005.55 1006.34 1006.32 1006.17 1006.33 1007.39 1007.87 1008.42 1010.77 1013.07 1014.81 1017.25 1019.10 1019.06 1018.26 1017.25 1016.36 1015.77 1015.22 1014.84 1014.47 1014.38 1014.08 1014.00 1013.83 1013.60 1013.44 1013.27 1013.16 1013.02 1013.01 1012.86 1012.83 1012.87 1012.86 1012.94 1012.86 1012.88 1012.92 1012.84 1012.98 1012.95 1012.97
1009.82 1009.22 1008.95 1007.54 1006.53 1004.96 1005.89 1006.29 1006.72 1007.02 1007.66 1008.00 1008.61 1009.10 1011.14 1015.06 1017.35 1018.54 1019.13 1019.34 1019.01 1018.40 1017.18 1016.61 1016.13 1015.84 1015.43 1015.03 1014.81 1014.60 1014.36 1014.09 1013.85 1013.70 1013.48 1013.27 1013.01 1012.90 1012.72 1012.67 1012.63 1012.78 1012.69 1012.76 1012.69 1012.73 1012.84 1012.87 1012.91
1009.80 1009.17 1007.86 1006.39 1005.68 1005.87 1006.22 1007.12 1007.35 1007.72 1008.19 1008.40 1009.29 1011.57 1014.15 1017.81 1018.95 1019.86 1020.32 1020.03 1019.58 1019.04 1018.04 1017.44 1017.00 1016.60 1016.25 1015.85 1015.58 1015.40 1015.12 1014.83 1014.49 1014.14 1013.74 1013.57 1013.35 1013.03 1012.88 1012.73 1012.63 1012.62 1012.59 1012.65 1012.61 1012.62 1012.66 1012.61 1012.64
1008.95 1008.36 1007.18 1006.00 1006.42 1007.35 1007.43 1007.92 1008.31 1008.12 1008.55 1009.70 1010.44 1013.36 1017.04 1019.82 1020.13 1020.69 1020.47 1020.15 1019.91 1019.29 1018.75 1018.30 1017.77 1017.34 1017.04 1016.74 1016.42 1016.10 1015.79 1015.45 1015.15 1014.86 1014.59 1014.16 1013.79 1013.55 1013.36 1013.02 1012.80 1012.76 1012.70 1012.69 1012.55 1012.53 1012.50 1012.58 1012.58
1008.92 1007.44 1006.22 1006.49 1007.55 1008.00 1008.50 1008.80 1008.92 1009.00 1009.72 1010.91 1011.23 1014.62 1017.82 1020.08 1020.66 1020.80 1020.65 1020.27 1019.97 1019.69 1019.17 1018.56 1018.26 1017.95 1017.73 1017.37 1017.03 1016.72 1016.42 1016.17 1015.77 1015.48 1015.30 1014.90 1014.64 1014.29 1014.05 1013.70 1013.31 1013.08 1012.92 1012.86 1012.65 1012.58 1012.48 1012.39 1012.38
1007.89 1007.16 1006.05 1006.66 1008.17 1008.73 1009.27 1009.57 1009.77 1010.48 1011.79 1012.83 1012.75 1015.19 1018.75 1020.33 1020.55 1020.67 1020.62 1020.39 1020.21 1019.86 1019.60 1019.19 1018.69 1018.13 1017.98 1017.86 1017.63 1017.35 1017.03 1016.69 1016.43 1016.11 1015.71 1015.45 1015.20 1014.95 1014.66 1014.37 1013.85 1013.54 1013.26 1013.06 1012.95 1013.00 1012.75 1012.48 1012.33
1007.69 1006.91 1007.04 1007.97 1009.14 1010.11 1010.90 1011.14 1012.19 1012.41 1013.57 1014.09 1014.31 1015.17 1018.65 1020.03 1020.43 1020.54 1020.52 1020.30 1019.99 1019.75 1019.55 1019.24 1018.91 1018.67 1018.27 1017.93 1017.97 1017.68 1017.39 1017.05 1016.75 1016.45 1016.08 1015.73 1015.45 1015.15 1014.96 1014.70 1014.56 1014.20 1013.84 1013.53 1013.37 1013.18 1012.86 1012.99 1012.58
1008.66 1007.97 1008.50 1009.39 1009.84 1011.22 1011.58 1012.34 1013.75 1013.71 1015.51 1015.42 1015.70 1016.88 1018.66 1020.13 1020.46 1020.31 1020.23 1020.08 1019.89 1019.78 1019.56 1019.36 1018.97 1018.72 1018.42 1017.93 1017.83 1017.80 1017.49 1017.17 1016.83 1016.45 1016.13 1015.84 1015.22 1014.97 1014.81 1014.82 1014.62 1014.35 1014.24 1013.99 1013.65 1013.38 1013.15 1012.74 1012.42
1009.12 1008.55 1009.44 1010.48 1010.72 1012.06 1013.30 1012.91 1015.13 1016.12 1016.99 1017.74 1018.27 1019.27 1020.14 1020.45 1020.35 1020.33 1020.38 1020.38 1020.29 1020.03 1019.91 1019.59 1019.44 1019.05 1018.59 1018.06 1018.00 1017.69 1017.34 1016.95 1016.68 1016.35 1016.08 1015.64 1015.05 1014.72 1014.93 1014.84 1014.91 1014.47 1014.18 1013.96 1013.83 1013.52 1013.23 1012.78 1012.15
1008.83 1009.38 1011.20 1012.41 1012.65 1014.53 1015.64 1015.78 1015.87 1017.28 1018.30 1019.21 1019.70 1020.39 1020.87 1020.96 1020.97 1020.82 1020.69 1020.71 1020.74 1020.43 1020.43 1020.25 1019.92 1019.57 1019.01 1018.37 1018.12 1017.72 1017.41 1017.05 1016.64 1016.28 1016.01 1015.73 1015.26 1014.89 1014.96 1014.72 1014.58 1014.35 1014.08 1013.68 1013.36 1013.19 1012.92 1012.35 1012.11
1010.24 1011.20 1012.89 1014.20 1014.54 1014.68 1016.42 1017.81 1018.52 1018.43 1020.30 1021.51 1021.75 1021.96 1021.86 1021.78 1021.72 1021.62 1021.49 1021.17 1021.05 1020.63 1020.53 1020.37 1020.12 1019.77 1019.26 1018.63 1018.20 1017.54 1017.10 1016.72 1016.31 1016.10 1015.81 1015.75 1015.21 1014.77 1014.41 1014.35 1014.15 1014.00 1013.75 1013.41 1013.08 1012.73 1012.47 1012.47 1012.29
1011.69 1013.59 1014.29 1016.05 1016.21 1016.66 1018.06 1019.43 1020.65 1021.37 1022.61 1022.97 1023.06 1023.10 1022.94 1022.76 1022.51 1022.33 1022.06 1021.60 1021.17 1020.65 1020.40 1020.23 1019.98 1019.71 1019.38 1018.89 1018.34 1017.54 1016.99 1016.44 1015.91 1015.56 1015.52 1015.42 1015.11 1014.59 1014.33 1014.06 1013.91 1013.92 1013.69 1013.54 1013.16 1012.91 1012.61 1012.33 1011.96
1012.99 1014.55 1015.89 1016.96 1017.69 1018.62 1019.61 1020.66 1021.56 1022.73 1023.31 1023.52 1023.66 1023.68 1023.44 1023.27 1022.87 1022.73 1022.58 1022.24 1021.59 1021.17 1020.79 1020.38 1020.10 1019.78 1019.49 1019.08 1018.52 1018.00 1017.44 1016.66 1015.92 1015.35 1014.99 1014.82 1014.64 1014.40 1014.10 1013.75 1013.43 1013.43 1013.47 1013.33 1013.17 1012.91 1012.66 1012.41 1011.90
1013.69 1015.00 1016.11 1017.21 1018.12 1019.15 1020.06 1021.46 1021.83 1023.48 1023.79 1023.88 1024.01 1024.02 1023.83 1023.61 1023.36 1022.99 1022.81 1022.47 1021.93 1021.60 1021.14 1020.74 1020.36 1020.01 1019.56 1019.03 1018.49 1018.00 1017.60 1016.98 1016.25 1015.40 1014.73 1014.29 1013.88 1013.72 1013.54 1013.41 1013.18 1012.97 1013.03 1013.00 1012.96 1013.01 1012.59 1012.21 1011.94
1014.17 1014.94 1015.90 1016.85 1017.71 1019.39 1019.84 1021.79 1023.43 1024.10 1024.24 1024.15 1024.13 1024.06 1024.01 1023.70 1023.37 1023.13 1023.04 1022.62 1022.22 1021.81 1021.27 1020.82 1020.26 1019.77 1019.38 1018.73 1018.23 1017.83 1017.28 1016.69 1016.07 1015.43 1014.80 1014.13 1013.63 1013.35 1013.28 1013.20 1013.00 1012.83 1012.66 1012.72 1012.76 1012.70 1012.40 1011.97 1011.75
1013.59 1013.83 1014.38 1017.12 1017.68 1018.81 1019.84 1021.54 1024.16 1024.63 1024.55 1024.59 1024.50 1024.32 1024.12 1023.79 1023.55 1023.21 1022.91 1022.53 1022.04 1021.49 1021.00 1020.51 1020.03 1019.53 1018.95 1018.48 1017.86 1017.39 1016.89 1016.29 1015.68 1015.06 1014.42 1013.85 1013.32 1013.06 1013.07 1013.15 1012.99 1012.64 1012.56 1012.44 1012.32 1012.49 1012.32 1011.88 1011.53
1012.92 1013.66 1014.45 1016.29 1018.17 1018.80 1019.85 1022.42 1024.66 1025.15 1025.10 1025.13 1024.93 1024.63 1024.31 1023.96 1023.50 1023.10 1022.84 1022.39 1021.91 1021.42 1020.82 1020.15 1019.60 1019.02 1018.48 1017.93 1017.50 1016.89 1016.14 1015.54 1015.17 1014.61 1013.94 1013.30 1012.84 1012.55 1012.52 1012.51 1012.45 1012.51 1012.14 1012.06 1012.05 1011.87 1011.94 1011.65 1011.27
1014.90 1014.89 1015.33 1015.98 1017.50 1018.94 1020.93 1023.43 1025.07 1025.67 1025.80 1025.55 1025.20 1024.92 1024.44 1023.91 1023.44 1023.07 1022.60 1022.17 1021.65 1021.16 1020.59 1019.96 1019.34 1018.83 1018.28 1017.78 1017.05 1016.22 1015.49 1014.95 1014.50 1014.10 1013.72 1013.17 1012.54 1012.11 1012.01 1011.92 1012.02 1011.97 1011.80 1011.86 1011.80 1011.58 1011.52 1011.39 1011.06
1016.44 1015.93 1015.66 1016.72 1018.65 1019.57 1021.30 1023.54 1025.14 1025.89 1025.69 1025.63 1025.46 1024.83 1024.32 1023.89 1023.51 1023.10 1022.63 1022.12 1021.38 1020.88 1020.13 1019.62 1019.02 1018.56 1018.02 1017.26 1016.59 1015.86 1015.13 1014.75 1014.25 1013.72 1013.33 1012.91 1012.39 1011.83 1011.59 1011.43 1011.37 1011.34 1011.19 1011.15 1011.09 1011.11 1010.95 1010.80 1010.93
1016.75 1016.59 1016.93 1017.30 1018.19 1019.56 1021.45 1023.54 1025.30 1025.87 1025.76 1025.80 1025.38 1024.82 1024.41 1023.92 1023.32 1022.74 1022.19 1021.72 1021.20 1020.50 1019.83 1019.28 1018.72 1018.10 1017.55 1016.89 1016.23 1015.59 1014.83 1014.25 1013.75 1013.21 1012.85 1012.55 1012.04 1011.62 1011.21 1010.94 1010.70 1010.54 1010.59 1010.44 1010.36 1010.40 1010.43 1010.44 1010.44
1017.42 1017.98 1018.29 1018.52 1018.37 1019.48 1020.97 1022.80 1024.58 1025.48 1025.83 1025.81 1025.37 1024.96 1024.60 1024.15 1023.47 1022.81 1022.09 1021.43 1020.92 1020.26 1019.67 1019.11 1018.49 1017.77 1017.13 1016.51 1015.77 1015.03 1014.36 1013.67 1012.93 1012.28 1011.81 1011.48 1011.23 1010.89 1010.63 1010.37 1010.21 1010.01 1009.90 1009.69 1009.47 1009.60 1009.69 1009.72 1009.89
1018.24 1018.95 1018.92 1018.49 1018.49 1018.72 1020.75 1021.49 1023.83 1025.26 1025.52 1025.45 1024.98 1024.94 1024.68 1024.14 1023.57 1022.86 1022.02 1021.39 1020.83 1020.12 1019.54 1018.97 1018.12 1017.37 1016.61 1016.02 1015.35 1014.59 1013.71 1012.76 1012.19 1011.79 1011.32 1010.89 1010.61 1010.33 1010.07 1009.89 1009.72 1009.44 1009.15 1008.87 1008.77 1008.78 1008.91 1009.07 1009.01
1020.12 1019.46 1018.36 1018.59 1018.74 1019.07 1020.39 1021.14 1023.65 1024.85 1025.39 1025.38 1025.23 1025.14 1024.67 1024.17 1023.43 1022.65 1022.01 1021.35 1020.71 1019.73 1019.08 1018.29 1017.55 1016.84 1016.31 1015.68 1015.37 1014.59 1013.39 1012.45 1011.50 1010.88 1010.40 1010.05 1009.85 1009.60 1009.27 1009.14 1008.94 1008.63 1008.31 1008.04 1008.02 1008.03 1008.04 1008.03 1008.28
1021.32 1018.71 1017.91 1018.62 1018.60 1018.33 1020.47 1021.74 1023.74 1025.63 1026.31 1026.03 1025.59 1025.41 1024.75 1024.06 1023.40 1022.85 1022.13 1021.19 1020.23 1019.53 1018.70 1017.92 1017.16 1016.29 1015.95 1015.89 1014.90 1014.06 1013.23 1012.23 1011.26 1010.37 1009.75 1009.24 1008.91 1008.64 1008.32 1008.19 1007.94 1007.74 1007.61 1007.41 1007.36 1007.31 1007.28 1007.42 1007.59
1022.07 1019.84 1018.40 1018.54 1018.49 1018.68 1020.22 1021.33 1024.92 1026.23 1026.28 1026.70 1026.09 1025.47 1024.81 1024.14 1023.37 1022.48 1021.57 1020.66 1019.98 1019.02 1018.36 1017.61 1016.82 1016.11 1015.82 1015.16 1014.28 1013.49 1012.57 1011.72 1010.80 1009.99 1009.05 1008.32 1007.82 1007.40 1007.17 1007.22 1007.08 1006.92 1006.65 1006.67 1006.87 1006.75 1006.60 1006.74 1006.91
1023.85 1023.23 1023.03 1022.60 1021.00 1020.74 1020.95 1022.33 1025.04 1026.17 1026.64 1026.98 1026.72 1025.92 1025.14 1024.32 1023.61 1022.41 1021.70 1020.74 1019.86 1019.08 1018.52 1017.94 1017.20 1016.32 1015.43 1014.48 1013.49 1012.56 1011.61 1010.72 1009.94 1009.16 1008.55 1007.92 1007.31 1006.73 1006.34 1006.21 1006.24 1006.40 1006.35 1006.31 1006.20 1006.06 1006.05 1006.20 1006.26
1024.99 1025.31 1026.48 1025.26 1023.48 1022.74 1021.79 1023.62 1025.29 1025.55 1026.58 1026.91 1026.63 1026.02 1025.16 1024.35 1023.41 1022.48 1021.55 1020.71 1020.10 1019.44 1018.92 1017.82 1016.67 1015.83 1014.90 1013.82 1012.63 1011.51 1010.56 1009.71 1008.89 1008.09 1007.42 1006.85 1006.54 1006.22 1005.90 1005.65 1005.51 1005.54 1005.78 1005.91 1005.88 1005.96 1005.96 1005.61 1005.58
1027.23 1027.47 1026.96 1026.58 1026.01 1024.70 1023.20 1023.88 1025.84 1025.91 1026.30 1026.57 1026.35 1025.93 1025.15 1024.20 1023.40 1022.08 1021.63 1020.84 1020.30 1019.80 1018.63 1017.69 1016.77 1015.62 1014.44 1013.24 1012.00 1010.72 1009.56 1008.58 1007.70 1006.96 1006.18 1005.60 1005.27 1005.19 1005.17 1005.16 1005.11 1004.97 1005.04 1005.36 1005.45 1005.48 1005.58 1005.59 1005.50
1028.17 1028.46 1028.50 1029.00 1028.76 1028.55 1026.50 1025.77 1027.44 1027.63 1027.65 1027.19 1026.71 1026.14 1025.33 1024.38 1023.21 1022.46 1021.61 1021.24 1020.65 1019.70 1018.68 1017.73 1016.60 1015.42 1014.09 1012.76 1011.36 1009.96 1008.57 1007.38 1006.30 1005.54 1004.79 1004.30 1004.09 1004.05 1004.19 1004.32 1004.51 1004.66 1004.48 1004.60 1004.94 1005.17 1005.14 1005.12 1005.12
1030.70 1030.73 1030.68 1030.72 1030.61 1030.09 1030.20 1028.11 1027.71 1028.16 1028.25 1028.15 1027.17 1026.23 1025.50 1024.60 1023.71 1022.87 1022.08 1021.65 1020.67 1019.69 1018.86 1017.83 1016.56 1015.31 1013.96 1012.45 1010.87 1009.29 1007.74 1006.46 1005.47 1004.53 1003.39 1002.75 1002.64 1002.94 1003.14 1003.50 1003.76 1003.98 1003.92 1004.14 1004.53 1004.65 1004.61 1004.61 1004.71
Thickness
5794 5801 5802 5791 5769 5784 5768 5761 5779 5771 5771 5777 5776 5766 5740 5725 5715 5703 5691 5691 5697 5701 5705 5706 5710 5712 5713 5713 5713 5714 5714 5715 5715 5715 5714 5714 5713 5715 5714 5714 5713 5713 5714 5714 5714 5715 5714 5716 5717
5799 5802 5796 5790 5769 5771 5758 5776 5762 5769 5771 5777 5772 5768 5749 5708 5698 5692 5688 5687 5686 5688 5693 5694 5697 5698 5701 5703 5703 5703 5705 5705 5707 5707 5706 5708 5708 5708 5709 5710 5711 5709 5710 5709 5710 5710 5710 5711 5712
5800 5801 5787 5784 5777 5756 5756 5766 5767 5770 5774 5770 5760 5747 5724 5687 5687 5680 5678 5678 5678 5679 5683 5685 5686 5686 5687 5690 5691 5691 5692 5694 5695 5696 5699 5699 5700 5701 5702 5703 5704 5704 5704 5704 5706 5706 5707 5707 5708
5798 5795 5797 5777 5757 5759 5761 5763 5764 5765 5768 5762 5755 5719 5698 5679 5675 5671 5671 5671 5669 5670 5671 5672 5674 5675 5675 5676 5677 5678 5680 5681 5683 5683 5685 5688 5690 5691 5690 5690 5693 5695 5696 5697 5699 5700 5702 5701 5702
5797 5794 5775 5762 5750 5758 5762 5763 5763 5755 5752 5743 5749 5706 5684 5673 5670 5667 5665 5664 5664 5662 5663 5664 5664 5664 5664 5665 5665 5667 5667 5668 5670 5670 5670 5673 5676 5677 5678 5680 5683 5684 5686 5688 5691 5693 5695 5696 5697
5781 5789 5769 5754 5746 5755 5757 5760 5757 5747 5736 5724 5729 5705 5674 5669 5665 5662 5659 5658 5656 5655 5653 5653 5654 5655 5654 5654 5653 5654 5655 5655 5655 5657 5659 5661 5661 5663 5665 5667 5671 5674 5675 5677 5680 5679 5683 5687 5689
5778 5778 5761 5753 5741 5736 5736 5750 5728 5729 5714 5712 5719 5700 5677 5666 5664 5660 5656 5654 5652 5651 5648 5646 5645 5644 5644 5643 5642 5642 5642 5644 5645 5646 5647 5648 5649 5651 5652 5655 5656 5659 5663 5666 5667 5670 5670 5672 5678
5778 5774 5750 5746 5740 5724 5742 5737 5725 5724 5700 5713 5709 5684 5670 5660 5657 5655 5651 5648 5645 5641 5639 5636 5636 5633 5631 5632 5631 5629 5629 5630 5632 5634 5636 5636 5639 5641 5642 5641 5644 5648 5649 5652 5655 5658 5657 5664 5670
5783 5760 5741 5736 5741 5732 5732 5734 5717 5711 5693 5685 5679 5665 5656 5652 5648 5643 5637 5631 5628 5626 5623 5621 5617 5617 5618 5617 5616 5615 5617 5619 5620 5621 5622 5624 5627 5630 5628 5630 5630 5634 5638 5641 5643 5646 5648 5651 5660
5773 5756 5736 5739 5740 5711 5705 5706 5707 5688 5676 5666 5659 5651 5643 5638 5631 5625 5621 5613 5608 5606 5603 5600 5599 5597 5597 5597 5597 5598 5598 5600 5602 5605 5607 5609 5611 5613 5613 5616 5618 5621 5624 5630 5634 5637 5639 5644 5650
5763 5740 5736 5724 5726 5726 5702 5683 5682 5681 5651 5640 5632 5628 5627 5621 5614 5606 5601 5598 5593 5592 5587 5583 5578 5575 5574 5576 5575 5577 5579 5580 5583 5584 5587 5588 5593 5597 5600 5601 5605 5608 5611 5616 5622 5626 5630 5632 5635
5739 5729 5727 5707 5710 5704 5685 5675 5654 5646 5631 5627 5620 5614 5608 5600 5594 5589 5584 5581 5579 5577 5572 5566 5561 5556 5553 5552 5551 5554 5555 5558 5561 5564 5565 5566 5570 5576 5579 5585 5587 5591 5594 5598 5603 5609 5614 5620 5626
5730 5719 5711 5703 5695 5682 5672 5656 5646 5631 5625 5618 5610 5601 5594 5587 5582 5574 5567 5561 5556 5551 5546 5543 5538 5534 5529 5525 5525 5526 5527 5530 5534 5539 5543 5543 5546 5551 5556 5562 5569 5573 5576 5580 5585 5591 5597 5603 5611
5733 5717 5706 5697 5686 5676 5662 5648 5645 5622 5615 5606 5597 5587 5580 5572 5564 5557 5547 5540 5535 5528 5522 5517 5511 5506 5503 5501 5499 5500 5501 5504 5507 5512 5519 5522 5526 5530 5534 5538 5543 5552 5556 5561 5566 5570 5577 5585 5593
5726 5706 5701 5694 5689 5668 5666 5635 5616 5610 5603 5594 5586 5577 5566 5558 5549 5540 5529 5521 5512 5504 5499 5492 5487 5481 5475 5475 5472 5472 5473 5475 5481 5485 5490 5495 5498 5504 5508 5513 5519 5526 5533 5537 5544 5549 5557 5566 5574
5721 5720 5706 5682 5681 5671 5659 5631 5604 5598 5590 5579 5569 5560 5550 5542 5530 5518 5506 5495 5485 5477 5470 5464 5457 5453 5451 5448 5447 5447 5447 5447 5450 5453 5462 5468 5473 5476 5481 5485 5491 5500 5505 5514 5521 5525 5534 5544 5552
5728 5701 5701 5681 5671 5662 5651 5611 5590 5584 5575 5562 5552 5542 5530 5516 5504 5492 5480 5471 5461 5453 5448 5445 5442 5438 5436 5434 5431 5431 5432 5434 5433 5435 5437 5442 5445 5450 5453 5459 5467 5471 5480 5489 5496 5506 5510 5520 5531
5684 5686 5689 5680 5671 5656 5626 5595 5578 5569 5556 5544 5534 5520 5508 5497 5485 5471 5460 5451 5446 5440 5436 5432 5429 5425 5421 5419 5419 5421 5422 5423 5423 5424 5424 5425 5428 5430 5429 5433 5437 5443 5454 5464 5470 5479 5486 5496 5507
5685 5683 5683 5674 5651 5642 5616 5587 5568 5555 5544 5530 5515 5505 5493 5480 5467 5455 5447 5441 5438 5432 5429 5423 5418 5414 5410 5409 5407 5407 5410 5410 5411 5412 5413 5413 5414 5416 5414 5415 5418 5421 5428 5434 5444 5453 5463 5473 5484
5686 5678 5667 5665 5655 5635 5606 5577 5557 5542 5530 5514 5501 5490 5473 5464 5459 5453 5447 5440 5433 5427 5422 5417 5413 5409 5404 5400 5398 5397 5398 5399 5401 5403 5404 5403 5403 5404 5404 5403 5405 5408 5407 5413 5420 5427 5438 5447 5459
5678 5658 5647 5638 5644 5630 5605 5572 5547 5532 5520 5506 5492 5476 5464 5453 5447 5442 5439 5435 5431 5426 5420 5414 5410 5406 5402 5398 5395 5393 5392 5392 5395 5398 5398 5398 5397 5397 5396 5396 5395 5396 5396 5400 5407 5411 5414 5422 5434
5672 5654 5642 5637 5632 5627 5598 5581 5538 5523 5511 5496 5484 5468 5454 5449 5444 5440 5438 5434 5427 5423 5417 5411 5407 5403 5400 5395 5390 5388 5389 5390 5390 5388 5388 5390 5390 5390 5389 5388 5387 5389 5389 5392 5396 5400 5400 5402 5412
5650 5646 5649 5635 5624 5611 5586 5577 5537 5521 5498 5488 5474 5462 5454 5449 5445 5441 5437 5432 5426 5423 5417 5412 5407 5402 5397 5392 5385 5383 5385 5386 5387 5387 5386 5386 5385 5384 5384 5383 5383 5384 5387 5388 5390 5391 5393 5396 5398
5638 5655 5649 5630 5622 5609 5580 5565 5529 5499 5476 5471 5469 5455 5452 5449 5444 5439 5435 5432 5429 5423 5416 5411 5406 5404 5396 5385 5384 5381 5379 5379 5382 5383 5382 5382 5380 5380 5381 5380 5380 5381 5381 5383 5385 5386 5387 5388 5390
5628 5640 5641 5630 5618 5607 5587 5566 5514 5490 5478 5454 5456 5452 5450 5447 5445 5442 5438 5436 5428 5424 5417 5412 5408 5402 5393 5387 5384 5381 5378 5377 5377 5378 5381 5381 5381 5381 5380 5376 5375 5376 5378 5378 5377 5380 5383 5384 5384
5605 5603 5591 5569 5585 5577 5577 5559 5517 5491 5472 5455 5450 5449 5448 5446 5442 5442 5436 5432 5427 5422 5415 5407 5402 5397 5395 5392 5389 5386 5384 5382 5379 5377 5377 5376 5376 5376 5376 5374 5372 5369 5369 5369 5371 5373 5376 5378 5381
5597 5579 5564 5564 5576 5564 5580 5541 5513 5498 5471 5456 5449 5446 5446 5445 5442 5440 5438 5433 5424 5418 5410 5409 5408 5404 5401 5399 5399 5397 5394 5390 5387 5383 5380 5377 5374 5372 5371 5370 5369 5367 5364 5362 5361 5362 5364 5370 5375
5580 5573 5566 5562 5537 5538 5566 5541 5501 5486 5469 5456 5448 5444 5446 5447 5442 5447 5437 5431 5423 5415 5414 5412 5409 5409 5408 5407 5407 5408 5406 5402 5397 5392 5388 5384 5378 5373 5369 5366 5364 5363 5362 5358 5357 5356 5356 5358 5362
5572 5560 5554 5537 5528 5509 5518 5516 5483 5463 5452 5447 5443 5444 5444 5444 5445 5442 5439 5429 5421 5419 5417 5413 5411 5412 5413 5415 5416 5418 5418 5416 5412 5407 5401 5393 5385 5379 5372 5367 5362 5359 5359 5358 5355 5353 5352 5352 5356
5548 5540 5534 5521 5514 5506 5472 5480 5478 5460 5449 5438 5442 5447 5446 5445 5442 5441 5437 5427 5425 5423 5417 5414 5414 5415 5417 5420 5423 5427 5431 5430 5425 5420 5416 5409 5399 5388 5380 5372 5366 5361 5359 5357 5356 5353 5350 5351 5352